contact:dominique.lefevre@mio.osupytheas.fr, maurice.libes@osupytheas.fr, didier.mallarino@osupytheas.fr
Project:EMSO http://www.emso-fr.org/EMSO-France
Depth: 2436.0 m
Title:EMSO Ligure Ouest : Data MII capteur OXYGEN
DateTime,Latitude,Longitude,Optode-Type,Optode_Serial,Oxygen,Saturation_Oxygen,Temperature
DateTime,Latitude,Longitude,Optode-Type,Optode_Serial,µmol.l-1,%,degC
2017-11-16T00:01:11,42.805,6.029,4330,1995,197.679,60.450,13.286
2017-11-16T00:04:11,42.805,6.029,4330,1995,197.613,60.430,13.286
2017-11-16T00:07:11,42.805,6.029,4330,1995,197.585,60.421,13.286
2017-11-16T00:10:11,42.805,6.029,4330,1995,197.543,60.409,13.286
2017-11-16T00:13:11,42.805,6.029,4330,1995,197.610,60.429,13.286
2017-11-16T00:16:11,42.805,6.029,4330,1995,197.539,60.407,13.286
2017-11-16T00:19:11,42.805,6.029,4330,1995,197.588,60.422,13.286
2017-11-16T00:22:11,42.805,6.029,4330,1995,197.560,60.414,13.286
2017-11-16T00:25:11,42.805,6.029,4330,1995,197.552,60.412,13.286
2017-11-16T00:28:11,42.805,6.029,4330,1995,197.485,60.391,13.286
2017-11-16T00:31:11,42.805,6.029,4330,1995,197.379,60.359,13.286
2017-11-16T00:34:11,42.805,6.029,4330,1995,197.369,60.355,13.286
2017-11-16T00:37:11,42.805,6.029,4330,1995,197.362,60.353,13.286
2017-11-16T00:40:11,42.805,6.029,4330,1995,197.345,60.348,13.286
2017-11-16T00:43:11,42.805,6.029,4330,1995,197.374,60.357,13.286
2017-11-16T00:46:11,42.805,6.029,4330,1995,197.368,60.355,13.286
2017-11-16T00:49:11,42.805,6.029,4330,1995,197.337,60.345,13.286
2017-11-16T00:52:11,42.805,6.029,4330,1995,197.249,60.318,13.286
2017-11-16T00:55:11,42.805,6.029,4330,1995,197.225,60.311,13.286
2017-11-16T00:58:11,42.805,6.029,4330,1995,197.149,60.288,13.286
2017-11-16T01:01:11,42.805,6.029,4330,1995,197.135,60.284,13.286
2017-11-16T01:04:11,42.805,6.029,4330,1995,196.980,60.236,13.286
2017-11-16T01:07:11,42.805,6.029,4330,1995,197.009,60.245,13.286
2017-11-16T01:10:11,42.805,6.029,4330,1995,196.954,60.228,13.286
2017-11-16T01:13:11,42.805,6.029,4330,1995,196.947,60.226,13.286
2017-11-16T01:16:11,42.805,6.029,4330,1995,196.925,60.220,13.286
2017-11-16T01:19:11,42.805,6.029,4330,1995,196.935,60.223,13.286
2017-11-16T01:22:10,42.805,6.029,4330,1995,196.785,60.177,13.286
2017-11-16T01:25:10,42.805,6.029,4330,1995,196.842,60.195,13.286
2017-11-16T01:28:10,42.805,6.029,4330,1995,196.738,60.163,13.286
2017-11-16T01:31:10,42.805,6.029,4330,1995,196.755,60.168,13.286
2017-11-16T01:34:10,42.805,6.029,4330,1995,196.866,60.202,13.286
2017-11-16T01:37:10,42.805,6.029,4330,1995,196.796,60.180,13.286
2017-11-16T01:40:10,42.805,6.029,4330,1995,196.677,60.144,13.286
2017-11-16T01:43:10,42.805,6.029,4330,1995,196.699,60.151,13.286
2017-11-16T01:46:10,42.805,6.029,4330,1995,196.690,60.148,13.286
2017-11-16T01:49:10,42.805,6.029,4330,1995,196.816,60.187,13.286
2017-11-16T01:52:10,42.805,6.029,4330,1995,196.769,60.172,13.286
2017-11-16T01:55:10,42.805,6.029,4330,1995,196.703,60.152,13.286
2017-11-16T01:58:10,42.805,6.029,4330,1995,196.532,60.100,13.286
2017-11-16T02:01:10,42.805,6.029,4330,1995,196.539,60.102,13.286
2017-11-16T02:04:10,42.805,6.029,4330,1995,196.484,60.085,13.286
2017-11-16T02:07:10,42.805,6.029,4330,1995,196.369,60.050,13.286
2017-11-16T02:10:10,42.805,6.029,4330,1995,196.413,60.063,13.286
2017-11-16T02:13:10,42.805,6.029,4330,1995,196.220,60.005,13.286
2017-11-16T02:16:10,42.805,6.029,4330,1995,196.117,59.973,13.286
2017-11-16T02:19:10,42.805,6.029,4330,1995,196.293,60.026,13.286
2017-11-16T02:22:10,42.805,6.029,4330,1995,196.360,60.047,13.286
2017-11-16T02:25:10,42.805,6.029,4330,1995,196.442,60.072,13.286
2017-11-16T02:28:10,42.805,6.029,4330,1995,196.316,60.033,13.286
2017-11-16T02:31:10,42.805,6.029,4330,1995,196.401,60.059,13.286
2017-11-16T02:34:10,42.805,6.029,4330,1995,196.372,60.051,13.286
2017-11-16T02:37:10,42.805,6.029,4330,1995,196.493,60.088,13.286
2017-11-16T02:40:10,42.805,6.029,4330,1995,196.551,60.106,13.286
2017-11-16T02:43:10,42.805,6.029,4330,1995,196.487,60.086,13.286
2017-11-16T02:46:10,42.805,6.029,4330,1995,196.553,60.106,13.286
2017-11-16T02:49:10,42.805,6.029,4330,1995,196.412,60.063,13.286
2017-11-16T02:52:10,42.805,6.029,4330,1995,196.374,60.052,13.286
2017-11-16T02:55:10,42.805,6.029,4330,1995,196.386,60.055,13.286
2017-11-16T02:58:10,42.805,6.029,4330,1995,196.420,60.066,13.286
2017-11-16T03:01:10,42.805,6.029,4330,1995,196.387,60.056,13.286
2017-11-16T03:04:10,42.805,6.029,4330,1995,196.348,60.043,13.286
2017-11-16T03:07:10,42.805,6.029,4330,1995,196.607,60.123,13.286
2017-11-16T03:10:10,42.805,6.029,4330,1995,196.569,60.111,13.286
2017-11-16T03:13:10,42.805,6.029,4330,1995,196.613,60.124,13.286
2017-11-16T03:16:10,42.805,6.029,4330,1995,196.580,60.115,13.286
2017-11-16T03:19:10,42.805,6.029,4330,1995,196.661,60.139,13.286
2017-11-16T03:22:10,42.805,6.029,4330,1995,196.556,60.107,13.286
2017-11-16T03:25:10,42.805,6.029,4330,1995,196.535,60.101,13.286
2017-11-16T03:28:10,42.805,6.029,4330,1995,196.473,60.082,13.286
2017-11-16T03:31:10,42.805,6.029,4330,1995,196.442,60.072,13.286
2017-11-16T03:34:10,42.805,6.029,4330,1995,196.489,60.086,13.286
2017-11-16T03:37:10,42.805,6.029,4330,1995,196.491,60.087,13.286
2017-11-16T03:40:10,42.805,6.029,4330,1995,196.553,60.106,13.286
2017-11-16T03:43:10,42.805,6.029,4330,1995,196.589,60.117,13.286
2017-11-16T03:46:10,42.805,6.029,4330,1995,196.575,60.113,13.286
2017-11-16T03:49:10,42.805,6.029,4330,1995,196.464,60.079,13.286
2017-11-16T03:52:10,42.805,6.029,4330,1995,196.407,60.061,13.286
2017-11-16T03:55:10,42.805,6.029,4330,1995,196.494,60.088,13.286
2017-11-16T03:58:10,42.805,6.029,4330,1995,196.511,60.093,13.286
2017-11-16T04:01:10,42.805,6.029,4330,1995,196.396,60.058,13.286
2017-11-16T04:04:10,42.805,6.029,4330,1995,196.355,60.046,13.286
2017-11-16T04:07:10,42.805,6.029,4330,1995,196.421,60.066,13.286
2017-11-16T04:10:10,42.805,6.029,4330,1995,196.368,60.049,13.286
2017-11-16T04:13:10,42.805,6.029,4330,1995,196.500,60.090,13.286
2017-11-16T04:16:10,42.805,6.029,4330,1995,196.484,60.085,13.286
2017-11-16T04:19:10,42.805,6.029,4330,1995,196.418,60.065,13.286
2017-11-16T04:22:10,42.805,6.029,4330,1995,196.338,60.040,13.286
2017-11-16T04:25:10,42.805,6.029,4330,1995,196.410,60.062,13.286
2017-11-16T04:28:10,42.805,6.029,4330,1995,196.494,60.088,13.286
2017-11-16T04:31:10,42.805,6.029,4330,1995,196.650,60.136,13.286
2017-11-16T04:34:10,42.805,6.029,4330,1995,196.829,60.190,13.286
2017-11-16T04:37:10,42.805,6.029,4330,1995,196.741,60.164,13.286
2017-11-16T04:40:10,42.805,6.029,4330,1995,196.970,60.233,13.286
2017-11-16T04:43:10,42.805,6.029,4330,1995,197.015,60.247,13.286
2017-11-16T04:46:10,42.805,6.029,4330,1995,197.009,60.245,13.286
2017-11-16T04:49:10,42.805,6.029,4330,1995,196.903,60.213,13.286
2017-11-16T04:52:10,42.805,6.029,4330,1995,196.915,60.217,13.286
2017-11-16T04:55:10,42.805,6.029,4330,1995,196.900,60.212,13.286
2017-11-16T04:58:10,42.805,6.029,4330,1995,196.983,60.238,13.286
2017-11-16T05:01:10,42.805,6.029,4330,1995,197.032,60.253,13.286
2017-11-16T05:04:10,42.805,6.029,4330,1995,196.998,60.242,13.286
2017-11-16T05:07:10,42.805,6.029,4330,1995,196.999,60.243,13.286
2017-11-16T05:10:10,42.805,6.029,4330,1995,197.041,60.256,13.286
2017-11-16T05:13:10,42.805,6.029,4330,1995,197.048,60.257,13.286
2017-11-16T05:16:10,42.805,6.029,4330,1995,197.039,60.255,13.286
2017-11-16T05:19:10,42.805,6.029,4330,1995,197.066,60.264,13.287
2017-11-16T05:22:10,42.805,6.029,4330,1995,197.151,60.290,13.287
2017-11-16T05:25:10,42.805,6.029,4330,1995,197.166,60.295,13.287
2017-11-16T05:28:10,42.805,6.029,4330,1995,197.097,60.273,13.287
2017-11-16T05:31:10,42.805,6.029,4330,1995,197.159,60.292,13.286
2017-11-16T05:34:10,42.805,6.029,4330,1995,197.120,60.280,13.287
2017-11-16T05:37:10,42.805,6.029,4330,1995,197.009,60.246,13.287
2017-11-16T05:40:10,42.805,6.029,4330,1995,197.088,60.270,13.286
2017-11-16T05:43:10,42.805,6.029,4330,1995,197.033,60.254,13.287
2017-11-16T05:46:10,42.805,6.029,4330,1995,196.859,60.200,13.287
2017-11-16T05:49:10,42.805,6.029,4330,1995,196.764,60.171,13.287
2017-11-16T05:52:10,42.805,6.029,4330,1995,196.727,60.161,13.287
2017-11-16T05:55:10,42.805,6.029,4330,1995,196.762,60.171,13.287
2017-11-16T05:58:10,42.805,6.029,4330,1995,196.758,60.170,13.287
2017-11-16T06:01:10,42.805,6.029,4330,1995,196.761,60.171,13.287
2017-11-16T06:04:10,42.805,6.029,4330,1995,196.847,60.197,13.287
2017-11-16T06:07:10,42.805,6.029,4330,1995,196.687,60.148,13.287
2017-11-16T06:10:10,42.805,6.029,4330,1995,196.691,60.151,13.288
2017-11-16T06:13:10,42.805,6.029,4330,1995,196.607,60.125,13.288
2017-11-16T06:16:10,42.805,6.029,4330,1995,196.451,60.078,13.288
2017-11-16T06:19:10,42.805,6.029,4330,1995,196.279,60.025,13.288
2017-11-16T06:22:10,42.805,6.029,4330,1995,196.313,60.034,13.287
2017-11-16T06:25:10,42.805,6.029,4330,1995,196.274,60.022,13.287
2017-11-16T06:28:10,42.805,6.029,4330,1995,196.304,60.031,13.287
2017-11-16T06:31:10,42.805,6.029,4330,1995,196.289,60.027,13.287
2017-11-16T06:34:10,42.805,6.029,4330,1995,196.318,60.036,13.287
2017-11-16T06:37:10,42.805,6.029,4330,1995,196.398,60.059,13.286
2017-11-16T06:40:10,42.805,6.029,4330,1995,196.254,60.016,13.287
2017-11-16T06:43:10,42.805,6.029,4330,1995,196.424,60.067,13.287
2017-11-16T06:46:10,42.805,6.029,4330,1995,196.361,60.048,13.287
2017-11-16T06:49:10,42.805,6.029,4330,1995,196.323,60.037,13.287
2017-11-16T06:52:10,42.805,6.029,4330,1995,196.218,60.004,13.287
2017-11-16T06:55:10,42.805,6.029,4330,1995,196.130,59.980,13.288
2017-11-16T06:58:10,42.805,6.029,4330,1995,196.089,59.965,13.287
2017-11-16T07:01:10,42.805,6.029,4330,1995,196.077,59.961,13.287
2017-11-16T07:04:10,42.805,6.029,4330,1995,196.023,59.945,13.287
2017-11-16T07:07:10,42.805,6.029,4330,1995,196.142,59.985,13.290
2017-11-16T07:10:10,42.805,6.029,4330,1995,195.870,59.899,13.287
2017-11-16T07:13:10,42.805,6.029,4330,1995,195.815,59.882,13.287
2017-11-16T07:16:10,42.805,6.029,4330,1995,195.845,59.891,13.287
2017-11-16T07:19:10,42.805,6.029,4330,1995,195.929,59.917,13.287
2017-11-16T07:22:10,42.805,6.029,4330,1995,195.786,59.875,13.289
2017-11-16T07:25:10,42.805,6.029,4330,1995,195.785,59.874,13.288
2017-11-16T07:28:10,42.805,6.029,4330,1995,195.860,59.897,13.288
2017-11-16T07:31:10,42.805,6.029,4330,1995,196.000,59.938,13.287
2017-11-16T07:34:10,42.805,6.029,4330,1995,195.946,59.923,13.288
2017-11-16T07:37:10,42.805,6.029,4330,1995,195.822,59.887,13.289
2017-11-16T07:40:10,42.805,6.029,4330,1995,195.736,59.858,13.287
2017-11-16T07:43:10,42.805,6.029,4330,1995,195.930,59.918,13.288
2017-11-16T07:46:10,42.805,6.029,4330,1995,196.083,59.964,13.287
2017-11-16T07:49:10,42.805,6.029,4330,1995,196.118,59.975,13.288
2017-11-16T07:52:10,42.805,6.029,4330,1995,196.026,59.946,13.287
2017-11-16T07:55:10,42.805,6.029,4330,1995,196.115,59.973,13.287
2017-11-16T07:58:10,42.805,6.029,4330,1995,196.376,60.054,13.287
2017-11-16T08:01:10,42.805,6.029,4330,1995,196.574,60.114,13.287
2017-11-16T08:04:10,42.805,6.029,4330,1995,196.694,60.150,13.287
2017-11-16T08:07:10,42.805,6.029,4330,1995,196.472,60.084,13.288
2017-11-16T08:10:10,42.805,6.029,4330,1995,196.472,60.083,13.288
2017-11-16T08:13:10,42.805,6.029,4330,1995,196.440,60.073,13.287
2017-11-16T08:16:10,42.805,6.029,4330,1995,196.265,60.020,13.287
2017-11-16T08:19:10,42.805,6.029,4330,1995,196.234,60.011,13.288
2017-11-16T08:22:10,42.805,6.029,4330,1995,196.466,60.081,13.287
2017-11-16T08:25:10,42.805,6.029,4330,1995,196.464,60.081,13.287
2017-11-16T08:28:10,42.805,6.029,4330,1995,196.454,60.077,13.287
2017-11-16T08:31:10,42.805,6.029,4330,1995,196.595,60.120,13.287
2017-11-16T08:34:10,42.805,6.029,4330,1995,196.302,60.033,13.289
2017-11-16T08:37:10,42.805,6.029,4330,1995,196.362,60.050,13.288
2017-11-16T08:40:10,42.805,6.029,4330,1995,196.428,60.070,13.288
2017-11-16T08:43:10,42.805,6.029,4330,1995,196.292,60.029,13.288
2017-11-16T08:46:10,42.805,6.029,4330,1995,196.551,60.106,13.286
2017-11-16T08:49:10,42.805,6.029,4330,1995,196.468,60.082,13.287
2017-11-16T08:52:10,42.805,6.029,4330,1995,196.436,60.073,13.288
2017-11-16T08:55:10,42.805,6.029,4330,1995,196.424,60.069,13.288
2017-11-16T08:58:10,42.805,6.029,4330,1995,196.424,60.071,13.289
2017-11-16T09:01:10,42.805,6.029,4330,1995,196.121,59.977,13.288
2017-11-16T09:04:10,42.805,6.029,4330,1995,196.234,60.009,13.287
2017-11-16T09:07:10,42.805,6.029,4330,1995,196.339,60.042,13.287
2017-11-16T09:10:10,42.805,6.029,4330,1995,196.340,60.043,13.288
2017-11-16T09:13:10,42.805,6.029,4330,1995,195.989,59.936,13.288
2017-11-16T09:16:10,42.805,6.029,4330,1995,196.018,59.944,13.287
2017-11-16T09:19:10,42.805,6.029,4330,1995,196.100,59.969,13.287
2017-11-16T09:22:10,42.805,6.029,4330,1995,196.028,59.948,13.287
2017-11-16T09:25:10,42.805,6.029,4330,1995,196.057,59.956,13.287
2017-11-16T09:28:10,42.805,6.029,4330,1995,196.062,59.958,13.287
2017-11-16T09:31:10,42.805,6.029,4330,1995,196.059,59.956,13.287
2017-11-16T09:34:10,42.805,6.029,4330,1995,196.245,60.014,13.287
2017-11-16T09:37:10,42.805,6.029,4330,1995,196.051,59.954,13.287
2017-11-16T09:40:10,42.805,6.029,4330,1995,196.073,59.960,13.287
2017-11-16T09:43:10,42.805,6.029,4330,1995,196.021,59.946,13.288
2017-11-16T09:46:10,42.805,6.029,4330,1995,195.935,59.919,13.287
2017-11-16T09:49:10,42.805,6.029,4330,1995,195.937,59.919,13.287
2017-11-16T09:52:10,42.805,6.029,4330,1995,195.800,59.877,13.287
2017-11-16T09:55:10,42.805,6.029,4330,1995,195.724,59.854,13.287
2017-11-16T09:58:10,42.805,6.029,4330,1995,195.747,59.861,13.287
2017-11-16T10:01:10,42.805,6.029,4330,1995,195.711,59.851,13.288
2017-11-16T10:04:10,42.805,6.029,4330,1995,195.896,59.906,13.287
2017-11-16T10:07:10,42.805,6.029,4330,1995,195.800,59.878,13.287
2017-11-16T10:10:10,42.805,6.029,4330,1995,195.711,59.850,13.287
2017-11-16T10:13:10,42.805,6.029,4330,1995,195.679,59.840,13.287
2017-11-16T10:16:10,42.805,6.029,4330,1995,195.816,59.883,13.287
2017-11-16T10:19:10,42.805,6.029,4330,1995,195.802,59.878,13.287
2017-11-16T10:22:10,42.805,6.029,4330,1995,195.597,59.816,13.288
2017-11-16T10:25:10,42.805,6.029,4330,1995,195.712,59.851,13.288
2017-11-16T10:28:10,42.805,6.029,4330,1995,195.742,59.860,13.287
2017-11-16T10:31:10,42.805,6.029,4330,1995,195.663,59.836,13.288
2017-11-16T10:34:10,42.805,6.029,4330,1995,195.528,59.795,13.288
2017-11-16T10:37:10,42.805,6.029,4330,1995,195.691,59.844,13.287
2017-11-16T10:40:10,42.805,6.029,4330,1995,195.752,59.862,13.287
2017-11-16T10:43:10,42.805,6.029,4330,1995,195.705,59.849,13.288
2017-11-16T10:46:10,42.805,6.029,4330,1995,195.802,59.878,13.287
2017-11-16T10:49:10,42.805,6.029,4330,1995,195.995,59.937,13.287
2017-11-16T10:52:10,42.805,6.029,4330,1995,196.008,59.941,13.287
2017-11-16T10:55:10,42.805,6.029,4330,1995,195.914,59.913,13.288
2017-11-16T10:58:10,42.805,6.029,4330,1995,195.762,59.865,13.287
2017-11-16T11:01:10,42.805,6.029,4330,1995,195.660,59.836,13.288
2017-11-16T11:04:10,42.805,6.029,4330,1995,195.643,59.830,13.288
2017-11-16T11:07:10,42.805,6.029,4330,1995,195.596,59.816,13.288
2017-11-16T11:10:10,42.805,6.029,4330,1995,195.782,59.872,13.287
2017-11-16T11:13:10,42.805,6.029,4330,1995,195.622,59.822,13.287
2017-11-16T11:16:10,42.805,6.029,4330,1995,195.602,59.818,13.288
2017-11-16T11:19:10,42.805,6.029,4330,1995,195.630,59.826,13.288
2017-11-16T11:22:10,42.805,6.029,4330,1995,195.573,59.808,13.288
2017-11-16T11:25:10,42.805,6.029,4330,1995,195.605,59.818,13.287
2017-11-16T11:28:10,42.805,6.029,4330,1995,195.656,59.834,13.288
2017-11-16T11:31:10,42.805,6.029,4330,1995,195.885,59.904,13.287
2017-11-16T11:34:10,42.805,6.029,4330,1995,195.745,59.860,13.287
2017-11-16T11:37:10,42.805,6.029,4330,1995,195.808,59.881,13.288
2017-11-16T11:40:10,42.805,6.029,4330,1995,195.720,59.853,13.287
2017-11-16T11:43:10,42.805,6.029,4330,1995,195.401,59.756,13.288
2017-11-16T11:46:10,42.805,6.029,4330,1995,195.178,59.688,13.288
2017-11-16T11:49:10,42.805,6.029,4330,1995,195.224,59.701,13.287
2017-11-16T11:52:10,42.805,6.029,4330,1995,195.317,59.730,13.288
2017-11-16T11:55:10,42.805,6.029,4330,1995,195.436,59.766,13.288
2017-11-16T11:58:10,42.805,6.029,4330,1995,195.559,59.804,13.288
2017-11-16T12:01:10,42.805,6.029,4330,1995,195.666,59.836,13.287
2017-11-16T12:04:10,42.805,6.029,4330,1995,195.749,59.863,13.288
2017-11-16T12:07:10,42.805,6.029,4330,1995,195.587,59.812,13.287
2017-11-16T12:10:10,42.805,6.029,4330,1995,195.534,59.796,13.287
2017-11-16T12:13:10,42.805,6.029,4330,1995,195.551,59.801,13.287
2017-11-16T12:16:10,42.805,6.029,4330,1995,195.666,59.836,13.287
2017-11-16T12:19:10,42.805,6.029,4330,1995,195.738,59.859,13.287
2017-11-16T12:22:10,42.805,6.029,4330,1995,195.858,59.895,13.287
2017-11-16T12:25:10,42.805,6.029,4330,1995,195.868,59.899,13.288
2017-11-16T12:28:10,42.805,6.029,4330,1995,195.861,59.897,13.288
2017-11-16T12:31:10,42.805,6.029,4330,1995,195.813,59.881,13.287
2017-11-16T12:34:10,42.805,6.029,4330,1995,195.779,59.870,13.287
2017-11-16T12:37:10,42.805,6.029,4330,1995,195.986,59.934,13.287
2017-11-16T12:40:10,42.805,6.029,4330,1995,195.941,59.920,13.287
2017-11-16T12:43:10,42.805,6.029,4330,1995,195.895,59.906,13.287
2017-11-16T12:46:10,42.805,6.029,4330,1995,195.806,59.880,13.288
2017-11-16T12:49:10,42.805,6.029,4330,1995,195.742,59.859,13.286
2017-11-16T12:52:10,42.805,6.029,4330,1995,195.944,59.921,13.287
2017-11-16T12:55:10,42.805,6.029,4330,1995,196.157,59.986,13.287
2017-11-16T12:58:10,42.805,6.029,4330,1995,196.292,60.027,13.287
2017-11-16T13:01:10,42.805,6.029,4330,1995,196.380,60.053,13.286
2017-11-16T13:04:10,42.805,6.029,4330,1995,196.332,60.039,13.286
2017-11-16T13:07:10,42.805,6.029,4330,1995,196.196,59.998,13.287
2017-11-16T13:10:10,42.805,6.029,4330,1995,196.287,60.026,13.287
2017-11-16T13:13:10,42.805,6.029,4330,1995,196.359,60.049,13.288
2017-11-16T13:16:10,42.805,6.029,4330,1995,196.371,60.052,13.287
2017-11-16T13:19:10,42.805,6.029,4330,1995,196.050,59.956,13.289
2017-11-16T13:22:10,42.805,6.029,4330,1995,195.799,59.879,13.289
2017-11-16T13:25:10,42.805,6.029,4330,1995,195.592,59.816,13.289
2017-11-16T13:28:10,42.805,6.029,4330,1995,195.301,59.725,13.288
2017-11-16T13:31:10,42.805,6.029,4330,1995,195.297,59.725,13.288
2017-11-16T13:34:10,42.805,6.029,4330,1995,195.071,59.656,13.289
2017-11-16T13:37:10,42.805,6.029,4330,1995,195.149,59.680,13.289
2017-11-16T13:40:10,42.805,6.029,4330,1995,195.178,59.687,13.287
2017-11-16T13:43:10,42.805,6.029,4330,1995,195.029,59.643,13.288
2017-11-16T13:46:10,42.805,6.029,4330,1995,195.119,59.671,13.288
2017-11-16T13:49:10,42.805,6.029,4330,1995,195.334,59.736,13.288
2017-11-16T13:52:10,42.805,6.029,4330,1995,195.316,59.731,13.289
2017-11-16T13:55:10,42.805,6.029,4330,1995,195.335,59.736,13.288
2017-11-16T13:58:10,42.805,6.029,4330,1995,195.157,59.681,13.287
2017-11-16T14:01:10,42.805,6.029,4330,1995,195.124,59.672,13.288
2017-11-16T14:04:10,42.805,6.029,4330,1995,195.047,59.648,13.288
2017-11-16T14:07:10,42.805,6.029,4330,1995,195.052,59.651,13.289
2017-11-16T14:10:10,42.805,6.029,4330,1995,194.868,59.594,13.288
2017-11-16T14:13:10,42.805,6.029,4330,1995,194.793,59.571,13.289
2017-11-16T14:16:10,42.805,6.029,4330,1995,194.810,59.576,13.288
2017-11-16T14:19:10,42.805,6.029,4330,1995,194.994,59.630,13.287
2017-11-16T14:22:10,42.805,6.029,4330,1995,195.342,59.737,13.287
2017-11-16T14:25:10,42.805,6.029,4330,1995,195.491,59.783,13.288
2017-11-16T14:28:10,42.805,6.029,4330,1995,195.352,59.741,13.288
2017-11-16T14:31:10,42.805,6.029,4330,1995,195.426,59.763,13.287
2017-11-16T14:34:10,42.805,6.029,4330,1995,195.234,59.705,13.288
2017-11-16T14:37:10,42.805,6.029,4330,1995,195.260,59.713,13.287
2017-11-16T14:40:10,42.805,6.029,4330,1995,195.230,59.703,13.288
2017-11-16T14:43:10,42.805,6.029,4330,1995,195.049,59.649,13.288
2017-11-16T14:46:10,42.805,6.029,4330,1995,194.827,59.580,13.288
2017-11-16T14:49:10,42.805,6.029,4330,1995,195.173,59.685,13.287
2017-11-16T14:52:10,42.805,6.029,4330,1995,195.298,59.724,13.287
2017-11-16T14:55:10,42.805,6.029,4330,1995,195.283,59.720,13.288
2017-11-16T14:58:10,42.805,6.029,4330,1995,195.170,59.685,13.287
2017-11-16T15:01:10,42.805,6.029,4330,1995,195.124,59.670,13.287
2017-11-16T15:04:10,42.805,6.029,4330,1995,195.058,59.651,13.287
2017-11-16T15:07:10,42.805,6.029,4330,1995,194.942,59.615,13.288
2017-11-16T15:10:10,42.805,6.029,4330,1995,194.831,59.581,13.287
2017-11-16T15:13:10,42.805,6.029,4330,1995,194.814,59.575,13.287
2017-11-16T15:16:10,42.805,6.029,4330,1995,194.770,59.563,13.288
2017-11-16T15:19:10,42.805,6.029,4330,1995,194.709,59.544,13.288
2017-11-16T15:22:10,42.805,6.029,4330,1995,194.784,59.566,13.287
2017-11-16T15:25:10,42.805,6.029,4330,1995,194.707,59.544,13.288
2017-11-16T15:28:10,42.805,6.029,4330,1995,194.810,59.575,13.288
2017-11-16T15:31:10,42.805,6.029,4330,1995,194.871,59.593,13.287
2017-11-16T15:34:10,42.805,6.029,4330,1995,194.943,59.615,13.287
2017-11-16T15:37:10,42.805,6.029,4330,1995,195.030,59.641,13.287
2017-11-16T15:40:10,42.805,6.029,4330,1995,195.246,59.707,13.286
2017-11-16T15:43:10,42.805,6.029,4330,1995,195.432,59.764,13.286
2017-11-16T15:46:10,42.805,6.029,4330,1995,195.633,59.825,13.287
2017-11-16T15:49:10,42.805,6.029,4330,1995,195.641,59.828,13.286
2017-11-16T15:52:10,42.805,6.029,4330,1995,195.586,59.811,13.287
2017-11-16T15:55:10,42.805,6.029,4330,1995,195.486,59.783,13.288
2017-11-16T15:58:10,42.805,6.029,4330,1995,195.391,59.755,13.289
2017-11-16T16:01:10,42.805,6.029,4330,1995,195.168,59.685,13.288
2017-11-16T16:04:10,42.805,6.029,4330,1995,195.149,59.678,13.287
2017-11-16T16:07:10,42.805,6.029,4330,1995,195.181,59.687,13.286
2017-11-16T16:10:10,42.805,6.029,4330,1995,195.371,59.745,13.287
2017-11-16T16:13:10,42.805,6.029,4330,1995,195.350,59.739,13.287
2017-11-16T16:16:10,42.805,6.029,4330,1995,195.440,59.766,13.286
2017-11-16T16:19:10,42.805,6.029,4330,1995,195.448,59.769,13.287
2017-11-16T16:22:10,42.805,6.029,4330,1995,195.535,59.795,13.286
2017-11-16T16:25:10,42.805,6.029,4330,1995,195.678,59.839,13.286
2017-11-16T16:28:10,42.805,6.029,4330,1995,195.698,59.845,13.286
2017-11-16T16:31:10,42.805,6.029,4330,1995,195.735,59.856,13.287
2017-11-16T16:34:10,42.805,6.029,4330,1995,195.618,59.820,13.286
2017-11-16T16:37:10,42.805,6.029,4330,1995,195.710,59.849,13.286
2017-11-16T16:40:10,42.805,6.029,4330,1995,195.601,59.816,13.287
2017-11-16T16:43:10,42.805,6.029,4330,1995,195.557,59.803,13.287
2017-11-16T16:46:10,42.805,6.029,4330,1995,195.727,59.854,13.286
2017-11-16T16:49:10,42.805,6.029,4330,1995,195.889,59.903,13.286
2017-11-16T16:52:10,42.805,6.029,4330,1995,196.071,59.959,13.286
2017-11-16T16:55:10,42.805,6.029,4330,1995,196.217,60.004,13.286
2017-11-16T16:58:10,42.805,6.029,4330,1995,196.244,60.012,13.286
2017-11-16T17:01:10,42.805,6.029,4330,1995,196.186,59.994,13.286
2017-11-16T17:04:10,42.805,6.029,4330,1995,196.295,60.028,13.287
2017-11-16T17:07:10,42.805,6.029,4330,1995,196.370,60.051,13.287
2017-11-16T17:10:10,42.805,6.029,4330,1995,196.347,60.044,13.286
2017-11-16T17:13:10,42.805,6.029,4330,1995,196.264,60.018,13.286
2017-11-16T17:16:10,42.805,6.029,4330,1995,196.162,59.988,13.287
2017-11-16T17:19:10,42.805,6.029,4330,1995,196.092,59.966,13.287
2017-11-16T17:22:10,42.805,6.029,4330,1995,196.138,59.981,13.287
2017-11-16T17:25:10,42.805,6.029,4330,1995,196.102,59.969,13.287
2017-11-16T17:28:10,42.805,6.029,4330,1995,196.245,60.013,13.287
2017-11-16T17:31:10,42.805,6.029,4330,1995,196.270,60.021,13.287
2017-11-16T17:34:10,42.805,6.029,4330,1995,196.315,60.034,13.287
2017-11-16T17:37:10,42.805,6.029,4330,1995,196.427,60.069,13.287
2017-11-16T17:40:10,42.805,6.029,4330,1995,196.439,60.072,13.287
2017-11-16T17:43:10,42.805,6.029,4330,1995,196.386,60.056,13.287
2017-11-16T17:46:10,42.805,6.029,4330,1995,196.399,60.060,13.287
2017-11-16T17:49:10,42.805,6.029,4330,1995,196.642,60.134,13.286
2017-11-16T17:52:10,42.805,6.029,4330,1995,196.725,60.159,13.286
2017-11-16T17:55:10,42.805,6.029,4330,1995,196.734,60.161,13.286
2017-11-16T17:58:10,42.805,6.029,4330,1995,196.896,60.211,13.286
2017-11-16T18:01:10,42.805,6.029,4330,1995,196.901,60.212,13.286
2017-11-16T18:04:10,42.805,6.029,4330,1995,196.874,60.204,13.286
2017-11-16T18:07:10,42.805,6.029,4330,1995,196.907,60.214,13.286